Home   Weather   Sunnyvale   Past weeks

Flag for USA Past Weather in Sunnyvale, California, USA — Yesterday and Last 2 Weeks

Now
69 °F

Scattered clouds.


Feels Like: 69 °F
Forecast: 61 / 77 °F
Wind: No wind

Location: Moffett Field

Current Time: Aug 18, 2017 at 11:10:45 am

Latest Report: Aug 18, 2017 at 9:56 am


Visibility: 10 mi

Pressure: 30.02 "Hg

Humidity: 70%

Dew Point: 59 °F

Location of SunnyvaleLocation

Past Weather in Sunnyvale — Graph

°F

Sunnyvale Temperature Yesterday

Maximum temperature yesterday: 75 °F (at 3:56 pm)
Minimum temperature yesterday: 60 °F (at 5:56 am)
Average temperature yesterday: 67 °F

High & Low Weather Summary for the Past Weeks

 TemperatureHumidityPressure
High81 °F (Aug 3, 12:56 pm)94% (Aug 5, 1:56 am)30.04 "Hg (Aug 5, 1:56 am)
Low58 °F (Aug 13, 5:56 am)46% (Aug 15, 2:56 pm)29.86 "Hg (Aug 15, 4:42 am)
Average67 °F76%29.95 "Hg
* Reported Aug 3 9:56 am — Aug 18 9:56 am, Sunnyvale. Weather by CustomWeather, © 2017

Note: Actual official high and low records may vary slightly from our data, if they occured in-between our weather recording intervals... More about our weather records

Advertising

Sunnyvale Weather History for the Previous 24 Hours

Scroll right to see more
 ConditionsComfort  
Time TempWeatherWind HumidityBarometerVisibility
9:56 am
Fri, Aug 18
69 °FScattered clouds.No wind70%30.02 "Hg10 mi
9:39 am68 °FOvercast.No wind73%30.02 "Hg10 mi
8:56 am65 °FOvercast.No wind81%30.03 "Hg10 mi
7:56 am64 °FOvercast.3 mph84%30.03 "Hg9 mi
6:56 am63 °FOvercast.3 mph87%30.02 "Hg9 mi
5:56 am63 °FOvercast.No wind87%30.01 "Hg10 mi
4:56 am63 °FOvercast.6 mph87%30.00 "Hg10 mi
3:56 am63 °FOvercast.6 mph87%30.00 "Hg10 mi
2:56 am62 °FOvercast.5 mph90%30.00 "Hg10 mi
1:56 am63 °FOvercast.7 mph87%30.01 "Hg10 mi
1:16 am64 °FPassing clouds.7 mph87%30.01 "Hg10 mi
12:56 am64 °FClear.9 mph87%30.01 "Hg10 mi
11:56 pm
Thu, Aug 17
64 °FClear.7 mph87%30.02 "Hg10 mi
10:56 pm65 °FClear.7 mph85%30.01 "Hg10 mi
9:56 pm65 °FClear.8 mph85%30.01 "Hg10 mi
8:56 pm65 °FClear.6 mph85%30.00 "Hg10 mi
7:56 pm67 °FSunny.8 mph76%29.98 "Hg10 mi
6:56 pm69 °FSunny.12 mph73%29.97 "Hg10 mi
5:56 pm71 °FSunny.10 mph71%29.97 "Hg10 mi
4:56 pm74 °FSunny.13 mph64%29.97 "Hg10 mi
3:56 pm75 °FSunny.12 mph62%29.98 "Hg10 mi
2:56 pm74 °FSunny.12 mph62%30.00 "Hg10 mi
1:56 pm74 °FSunny.12 mph62%30.01 "Hg10 mi
12:56 pm74 °FSunny.10 mph62%30.02 "Hg10 mi
11:56 am72 °FSunny.8 mph66%30.04 "Hg10 mi
Weather by CustomWeather, © 2017

See weather overviewHow to use our weather pages